Date Time,Air Temp,Sky Temp,Clarity,Light Level,Rain Sensor,Readings
2011-10-08 00:00:10,20.0,-13.2,33.2,0.4,2.6,112
2011-10-08 00:05:10,19.9,-13.3,33.3,0.4,2.6,112
2011-10-08 00:10:10,19.9,-13.4,33.3,0.4,2.6,111
2011-10-08 00:15:10,19.9,-13.4,33.3,0.4,2.6,112
2011-10-08 00:20:10,19.9,-13.0,33.0,0.4,2.6,111
2011-10-08 00:25:10,20.0,-13.2,33.2,0.4,2.5,112
2011-10-08 00:30:10,20.0,-12.3,32.3,0.4,2.6,112
2011-10-08 00:35:10,20.0,-11.1,31.1,0.5,2.6,111
2011-10-08 00:40:10,20.0,-11.2,31.2,0.4,2.6,112
2011-10-08 00:45:10,20.0,-11.7,31.8,0.4,2.5,111
2011-10-08 00:50:10,20.0,-13.0,33.0,0.4,2.4,112
2011-10-08 00:55:10,19.9,-13.2,33.1,0.4,2.4,112
2011-10-08 01:00:10,20.0,-13.0,33.0,0.4,2.4,111
2011-10-08 01:05:23,20.0,-12.4,32.4,0.4,2.3,112
2011-10-08 01:10:23,20.0,-12.2,32.2,0.4,2.3,111
2011-10-08 01:15:23,19.9,-12.1,32.0,0.4,2.3,111
2011-10-08 01:20:23,19.9,-11.3,31.3,0.4,2.3,112
2011-10-08 01:25:23,20.0,-10.1,30.1,0.4,2.3,112
2011-10-08 01:30:23,19.9,-9.7,29.6,0.3,2.3,111
2011-10-08 01:35:23,19.9,-10.2,30.0,0.3,2.3,113
2011-10-08 01:40:23,19.8,-10.3,30.1,0.2,2.3,112
2011-10-08 01:45:23,19.9,-11.8,31.6,0.2,2.3,111
2011-10-08 01:50:23,19.8,-13.1,32.9,0.3,2.3,111
2011-10-08 01:55:23,19.4,-12.5,32.0,0.3,2.3,111
2011-10-08 02:00:23,19.7,-10.4,30.2,0.3,2.3,113
2011-10-08 02:05:23,19.7,-11.2,30.9,0.3,2.3,111
2011-10-08 02:10:23,19.7,-12.0,31.7,0.3,2.3,111
2011-10-08 02:15:23,19.8,-10.5,30.2,0.2,2.3,112
2011-10-08 02:20:23,19.8,-11.6,31.4,0.0,2.3,112
2011-10-08 02:25:23,19.8,-12.3,32.1,0.0,2.3,111
2011-10-08 02:30:23,19.8,-12.7,32.5,0.0,2.4,111
2011-10-08 02:35:23,19.7,-12.7,32.5,0.0,2.4,112
2011-10-08 02:40:23,19.3,-11.8,31.1,0.0,2.4,111
2011-10-08 02:45:23,19.7,-10.6,30.3,0.0,2.4,112
2011-10-08 02:50:23,19.8,-10.8,30.6,0.0,2.4,111
2011-10-08 02:55:23,19.8,-10.7,30.5,0.0,2.3,112
2011-10-08 03:00:23,19.8,-9.4,29.2,0.0,2.3,112
2011-10-08 03:05:23,19.8,-6.6,26.4,0.0,2.3,111
2011-10-08 03:10:23,19.9,-4.6,24.5,0.0,2.3,112
2011-10-08 03:15:23,19.6,-4.7,24.3,0.0,2.3,112
2011-10-08 03:20:23,20.0,-2.7,22.8,0.0,2.3,111
2011-10-08 03:25:23,20.2,-2.4,22.6,0.0,2.3,112
2011-10-08 03:30:23,20.2,-4.5,24.8,0.0,2.4,111
2011-10-08 03:35:23,20.3,-2.0,22.3,0.0,2.4,112
2011-10-08 03:40:23,17.9,1.3,16.6,0.0,2.5,111
2011-10-08 03:45:23,16.4,0.8,15.6,0.0,2.3,111
2011-10-08 03:50:23,16.0,1.5,14.5,0.0,2.4,111
2011-10-08 03:55:23,15.9,1.7,14.1,0.0,2.7,111
2011-10-08 04:00:23,15.8,2.1,13.7,0.0,2.7,111
2011-10-08 04:05:23,15.8,1.6,14.2,0.0,2.7,111
2011-10-08 04:10:23,15.8,1.4,14.4,0.0,2.7,111
2011-10-08 04:15:23,15.8,1.4,14.4,0.1,2.6,111
2011-10-08 04:20:23,15.9,1.6,14.3,0.0,2.6,111
2011-10-08 04:25:23,15.8,1.0,14.8,0.0,2.6,111
2011-10-08 04:30:23,15.8,0.4,15.4,0.0,2.7,111
2011-10-08 04:35:23,15.8,1.5,14.4,0.1,2.6,112
2011-10-08 04:40:23,15.9,1.6,14.2,0.1,2.6,111
2011-10-08 04:45:23,15.8,1.5,14.3,0.1,2.7,111
2011-10-08 04:50:23,15.8,1.6,14.3,0.1,2.7,111
2011-10-08 04:55:23,15.8,1.5,14.4,0.1,2.7,111
2011-10-08 05:00:23,15.8,1.7,14.1,0.1,2.6,111
2011-10-08 05:05:23,15.8,2.0,13.8,0.1,2.6,111
2011-10-08 05:10:23,15.8,2.0,13.8,0.1,2.6,111
2011-10-08 05:15:23,15.8,2.2,13.6,0.1,2.6,111
2011-10-08 05:20:23,15.8,2.3,13.5,0.1,2.6,111
2011-10-08 05:25:23,15.8,2.2,13.5,0.1,2.7,111
2011-10-08 05:30:23,15.8,2.4,13.5,0.1,2.6,111
2011-10-08 05:35:23,15.8,2.4,13.4,0.1,2.6,111
2011-10-08 05:40:23,15.8,2.3,13.5,0.1,2.5,111
2011-10-08 05:45:23,15.9,2.4,13.4,0.1,2.5,111
2011-10-08 05:50:23,15.8,2.5,13.4,0.1,2.5,112
2011-10-08 05:55:23,15.8,2.4,13.4,0.1,2.5,111
2011-10-08 06:00:23,15.9,2.5,13.4,0.1,2.6,112
2011-10-08 06:05:23,15.9,2.6,13.3,0.1,2.6,111
2011-10-08 06:10:23,15.9,3.9,11.9,0.1,2.7,111
2011-10-08 06:15:23,16.1,5.5,10.6,0.1,2.6,111
2011-10-08 06:20:23,16.1,2.5,13.6,0.2,2.7,112
2011-10-08 06:25:23,16.1,2.6,13.4,0.3,2.7,111
2011-10-08 06:30:23,16.0,2.6,13.4,0.6,2.7,111
2011-10-08 06:35:23,16.0,2.6,13.3,1.1,2.7,112
2011-10-08 06:40:23,15.9,2.6,13.3,2.0,2.7,111
2011-10-08 06:45:23,15.9,2.6,13.4,4.1,2.7,112
2011-10-08 06:50:23,16.0,2.6,13.4,7.7,2.7,111
2011-10-08 06:55:23,16.0,2.8,13.3,12.4,2.7,111
2011-10-08 07:00:23,16.0,2.6,13.3,17.7,2.7,111
2011-10-08 07:05:23,15.9,2.7,13.2,22.6,2.7,111
2011-10-08 07:10:23,15.9,2.5,13.4,25.9,2.7,112
2011-10-08 07:15:23,16.0,2.8,13.2,27.7,2.7,111
2011-10-08 07:20:23,16.0,2.8,13.3,29.1,2.7,111
2011-10-08 07:25:23,16.0,2.7,13.3,30.0,2.7,112
2011-10-08 07:30:23,16.1,2.7,13.4,30.8,2.6,111
2011-10-08 07:35:23,16.0,2.6,13.4,31.1,2.6,111
2011-10-08 07:40:23,16.0,2.4,13.7,31.4,2.6,112
2011-10-08 07:45:23,16.1,2.1,14.0,31.7,2.6,111
2011-10-08 07:50:23,16.1,1.4,14.8,31.9,2.6,111
2011-10-08 07:55:23,16.2,-0.0,16.3,32.0,2.5,112
2011-10-08 08:00:23,16.3,-0.3,16.6,32.0,2.5,112
2011-10-08 08:05:23,16.4,1.4,15.0,32.1,2.5,111
2011-10-08 08:10:23,16.5,2.1,14.4,32.2,2.3,111
2011-10-08 08:15:23,16.6,2.0,14.6,32.2,2.2,111
2011-10-08 08:20:23,16.7,1.6,15.2,32.2,2.2,111
2011-10-08 08:25:23,16.8,2.6,14.1,32.2,2.3,111
2011-10-08 08:30:23,16.8,2.7,14.1,32.2,2.3,112
2011-10-08 08:35:23,16.8,2.7,14.1,32.2,2.3,111
2011-10-08 08:40:23,16.8,2.9,13.9,32.2,2.3,111
2011-10-08 08:45:23,16.8,2.7,14.2,32.2,2.3,111
2011-10-08 08:50:23,16.8,2.8,14.1,32.2,2.3,111
2011-10-08 08:55:23,16.8,2.7,14.1,32.3,2.3,111
2011-10-08 09:00:23,16.9,2.5,14.5,32.3,2.4,112
2011-10-08 09:05:23,16.9,2.7,14.2,32.3,2.5,111
2011-10-08 09:10:23,17.0,2.9,14.1,32.3,2.6,111
2011-10-08 09:15:23,17.1,2.7,14.3,32.3,2.7,111
2011-10-08 09:20:23,17.1,3.1,14.1,32.4,2.7,112
2011-10-08 09:25:23,17.2,3.3,13.9,32.4,2.7,111
2011-10-08 09:30:23,17.3,3.4,13.9,32.4,2.7,111
2011-10-08 09:35:23,17.4,3.5,13.9,32.4,2.7,112
2011-10-08 09:40:23,17.5,3.5,14.1,32.4,2.5,112
2011-10-08 09:45:23,17.6,3.8,13.9,32.4,2.4,111
2011-10-08 09:50:23,17.7,3.7,14.1,32.4,2.4,112
2011-10-08 09:55:23,17.9,3.8,14.1,32.5,2.3,111
2011-10-08 10:00:23,18.0,3.7,14.3,32.5,2.3,112
2011-10-08 10:05:23,18.0,4.1,13.9,32.5,2.4,112
2011-10-08 10:10:23,18.2,4.2,13.9,32.5,2.4,111
2011-10-08 10:15:23,18.3,4.1,14.2,32.5,2.4,112
2011-10-08 10:20:23,18.1,4.0,14.1,32.5,2.3,112
2011-10-08 10:25:23,18.5,3.7,14.8,32.5,2.3,111
2011-10-08 10:30:23,18.6,4.3,14.3,32.5,2.2,111
2011-10-08 10:35:23,18.7,4.4,14.4,32.5,2.0,112
2011-10-08 10:40:23,18.4,4.3,14.1,32.5,1.9,111
2011-10-08 10:45:23,18.8,4.6,14.3,32.5,1.9,112
2011-10-08 10:50:23,18.9,4.2,14.8,32.5,1.9,112
2011-10-08 10:55:23,19.1,4.2,14.9,32.5,2.0,111
2011-10-08 11:00:23,19.2,3.8,15.5,32.5,2.1,112
2011-10-08 11:05:23,19.5,4.0,15.5,32.6,2.3,111
2011-10-08 11:10:23,19.7,5.0,14.7,32.6,2.3,111
2011-10-08 11:15:23,19.8,2.7,17.1,32.5,2.5,112
2011-10-08 11:20:23,19.7,0.2,19.5,32.6,2.4,111
2011-10-08 11:25:23,22.3,-0.3,22.6,32.6,2.5,112
2011-10-08 11:30:23,24.2,-3.4,27.6,32.6,2.4,112
2011-10-08 11:35:23,25.2,-3.2,28.4,32.6,2.4,112
2011-10-08 11:40:23,25.9,-0.5,26.4,32.6,2.4,111
2011-10-08 11:45:23,25.9,2.0,23.9,32.6,2.5,111
2011-10-08 11:50:24,25.7,3.3,22.4,32.6,2.5,112
2011-10-08 11:55:24,25.6,3.9,21.7,32.6,2.5,111
2011-10-08 12:00:24,24.9,4.9,20.0,32.6,2.4,112
2011-10-08 12:05:24,22.1,4.8,17.3,32.5,2.5,111
2011-10-08 12:10:24,20.3,5.2,15.2,32.5,2.3,112
2011-10-08 12:15:24,20.3,5.4,14.9,32.5,2.4,112
2011-10-08 12:20:24,20.3,5.8,14.4,32.6,2.4,111
2011-10-08 12:25:24,20.5,6.3,14.1,32.6,2.4,112
2011-10-08 12:30:24,20.6,6.2,14.4,32.6,2.4,111
2011-10-08 12:35:24,20.6,6.0,14.7,32.6,2.3,112
2011-10-08 12:40:24,20.8,7.0,13.8,32.6,2.4,111
2011-10-08 12:45:24,21.0,6.5,14.5,32.6,2.3,111
2011-10-08 12:50:24,21.0,6.2,14.9,32.6,2.3,112
2011-10-08 12:55:24,21.1,5.3,15.8,32.6,2.3,112
2011-10-08 13:00:24,21.1,3.2,17.9,32.6,2.3,111
2011-10-08 13:05:24,21.3,4.7,16.6,32.6,2.3,112
2011-10-08 13:10:24,21.4,6.2,15.1,32.6,2.3,111
2011-10-08 13:15:24,21.4,5.9,15.5,32.6,2.3,111
2011-10-08 13:20:24,21.2,6.7,14.5,32.5,2.3,111
2011-10-08 13:25:24,21.0,7.3,13.7,32.5,2.3,111
2011-10-08 13:30:24,20.9,7.1,13.9,32.6,2.3,112
2011-10-08 13:35:24,20.9,7.2,13.7,32.6,2.3,111
2011-10-08 13:40:24,21.0,6.0,15.0,32.6,2.3,112
2011-10-08 13:45:24,20.9,5.1,15.8,32.6,2.3,112
2011-10-08 13:50:24,21.0,2.5,18.4,32.6,2.3,111
2011-10-08 13:55:24,21.4,3.1,18.3,32.6,2.3,111
2011-10-08 14:00:24,24.4,2.4,21.9,32.6,2.4,111
2011-10-08 14:05:24,26.2,1.4,24.8,32.6,2.4,112
2011-10-08 14:10:24,26.3,0.5,25.9,32.6,2.3,111
2011-10-08 14:15:24,26.2,3.4,22.8,32.6,2.3,111
2011-10-08 14:20:24,26.2,1.0,25.2,32.6,2.3,111
2011-10-08 14:25:24,26.2,3.7,22.5,32.6,2.3,111
2011-10-08 14:30:24,25.0,6.9,18.1,32.6,2.4,112
2011-10-08 14:35:24,22.8,7.7,15.1,32.6,2.3,111
2011-10-08 14:40:24,22.2,7.9,14.3,32.6,2.4,112
2011-10-08 14:45:24,22.0,8.1,13.9,32.5,2.5,111
2011-10-08 14:50:24,21.7,6.6,15.1,32.6,2.4,112
2011-10-08 14:55:24,21.6,5.9,15.7,32.6,2.5,111
2011-10-08 15:00:24,21.5,6.7,14.8,32.5,2.7,111
2011-10-08 15:05:24,21.5,6.4,15.0,32.6,2.7,112
2011-10-08 15:10:24,21.8,5.5,16.2,32.6,2.6,111
2011-10-08 15:15:24,22.3,4.2,18.1,32.6,2.4,112
2011-10-08 15:20:24,22.5,5.5,17.0,32.6,2.6,111
2011-10-08 15:25:24,23.1,4.3,18.8,32.6,2.3,112
2011-10-08 15:30:24,23.8,5.4,18.4,32.6,2.5,111
2011-10-08 15:35:24,22.9,8.0,14.9,32.4,2.4,112
2011-10-08 15:40:24,21.8,8.0,13.8,32.3,2.4,111
2011-10-08 15:45:24,21.1,8.2,12.9,32.3,2.6,111
2011-10-08 15:50:24,20.7,8.4,12.3,32.3,2.3,112
2011-10-08 15:55:24,20.5,8.6,11.9,32.3,2.3,111
2011-10-08 16:00:24,20.5,8.6,11.8,32.3,2.4,111
2011-10-08 16:05:24,20.4,8.9,11.5,32.3,2.5,111
2011-10-08 16:10:24,20.4,8.9,11.5,32.2,2.5,111
2011-10-08 16:15:24,20.4,9.0,11.4,32.2,2.4,112
2011-10-08 16:20:24,20.3,8.9,11.5,32.1,2.4,111
2011-10-08 16:25:24,20.3,9.0,11.3,32.1,2.5,111
2011-10-08 16:30:24,20.2,9.0,11.2,32.2,2.5,112
2011-10-08 16:35:24,20.2,9.0,11.3,32.2,2.5,111
2011-10-08 16:40:24,20.2,9.1,11.2,32.3,2.5,112
2011-10-08 16:45:24,20.2,8.8,11.4,32.2,2.5,111
2011-10-08 16:50:24,20.2,8.7,11.5,32.2,2.5,112
2011-10-08 16:55:24,20.2,9.0,11.2,32.2,2.6,111
2011-10-08 17:00:24,20.2,9.3,10.9,32.3,2.6,111
2011-10-08 17:05:24,20.2,9.3,10.9,32.1,2.6,112
2011-10-08 17:10:24,20.1,8.6,11.5,32.1,3.1,111
2011-10-08 17:15:24,20.0,7.7,12.3,32.2,5.1,111
2011-10-08 17:20:24,19.7,8.0,11.7,32.1,3.8,112
2011-10-08 17:25:24,19.4,8.3,11.1,32.1,7.1,111
2011-10-08 17:30:24,19.4,10.2,9.3,32.2,19.4,112
2011-10-08 17:35:24,19.5,10.9,8.7,32.1,15.4,111
2011-10-08 17:40:24,19.4,11.1,8.3,31.9,6.0,112
2011-10-08 17:45:24,19.1,11.3,7.8,31.7,2.7,111
2011-10-08 17:50:24,19.0,11.8,7.2,31.7,7.9,112
2011-10-08 17:55:24,19.1,11.9,7.2,31.6,8.2,112
2011-10-08 18:00:24,19.0,12.0,7.0,31.7,4.0,111
2011-10-08 18:05:24,19.0,12.3,6.7,31.5,2.5,112
2011-10-08 18:10:24,19.0,10.0,9.0,31.3,2.7,111
2011-10-08 18:15:24,19.0,9.5,9.5,31.3,2.6,112
2011-10-08 18:20:24,19.1,9.3,9.7,30.6,2.6,111
2011-10-08 18:25:24,19.1,10.0,9.1,29.2,2.5,112
2011-10-08 18:30:24,19.2,10.3,8.9,27.9,2.5,112
2011-10-08 18:35:24,19.3,10.3,9.0,26.6,2.6,111
2011-10-08 18:40:24,19.3,10.1,9.2,23.3,2.7,112
2011-10-08 18:45:24,19.4,10.0,9.3,18.8,2.7,111
2011-10-08 18:50:24,19.4,10.0,9.4,12.4,2.6,112
2011-10-08 18:55:24,19.4,9.8,9.6,9.2,2.7,112
2011-10-08 19:00:24,19.4,9.9,9.5,4.9,2.7,111
2011-10-08 19:05:24,19.4,9.7,9.8,2.7,2.7,112
2011-10-08 19:10:24,19.4,9.7,9.7,1.1,2.7,112
2011-10-08 19:15:24,19.4,9.6,9.8,0.5,2.8,111
2011-10-08 19:20:24,19.4,9.5,9.9,0.4,2.7,112
2011-10-08 19:25:24,19.4,9.3,10.1,0.2,2.7,111
2011-10-08 19:30:24,19.4,9.0,10.4,0.2,2.7,112
2011-10-08 19:35:24,19.5,9.0,10.5,0.2,2.7,111
2011-10-08 19:40:24,19.5,9.2,10.3,0.1,2.7,112
2011-10-08 19:45:24,19.5,9.2,10.3,0.1,2.7,112
2011-10-08 19:50:24,19.5,9.0,10.5,0.1,2.7,111
2011-10-08 19:55:24,19.5,8.8,10.7,0.1,2.7,111
2011-10-08 20:00:24,19.6,8.5,11.0,0.1,2.7,112
2011-10-08 20:05:24,19.6,9.2,10.4,0.1,2.7,111
2011-10-08 20:10:24,19.7,9.2,10.5,0.1,2.7,112
2011-10-08 20:15:24,19.7,9.3,10.4,0.1,2.7,112
2011-10-08 20:20:24,19.7,9.2,10.5,0.1,2.7,111
2011-10-08 20:25:24,19.8,9.1,10.7,0.2,2.7,112
2011-10-08 20:30:24,19.8,8.9,10.9,0.2,2.7,111
2011-10-08 20:35:24,19.9,9.0,10.8,0.2,2.7,111
2011-10-08 20:40:24,19.9,9.5,10.4,0.1,2.7,112
2011-10-08 20:45:24,19.9,8.8,11.1,0.2,2.7,111
2011-10-08 20:50:24,19.9,7.3,12.6,0.2,2.7,112
2011-10-08 20:55:24,19.8,7.5,12.3,0.2,2.7,111
2011-10-08 21:00:24,19.8,4.3,15.6,0.3,2.7,111
2011-10-08 21:05:24,21.3,0.1,21.2,0.3,2.4,112
2011-10-08 21:10:24,23.4,-1.3,24.8,0.2,2.5,112
2011-10-08 21:15:24,24.0,-2.7,26.7,0.3,2.5,111
2011-10-08 21:20:24,24.1,-3.5,27.7,0.4,2.3,112
2011-10-08 21:25:24,24.3,-2.4,26.7,0.4,2.4,111
2011-10-08 21:30:24,24.2,2.9,21.3,0.4,2.4,111
2011-10-08 21:35:24,21.8,3.6,18.3,0.2,2.4,112
2011-10-08 21:40:24,20.3,2.1,18.1,0.2,2.3,111
2011-10-08 21:45:24,21.8,0.0,21.8,0.3,2.3,111
2011-10-08 21:50:24,23.5,-1.5,25.0,0.4,2.6,112
2011-10-08 21:55:24,23.9,-1.9,25.8,0.4,2.4,112
2011-10-08 22:00:24,24.0,-0.3,24.3,0.5,2.3,111
2011-10-08 22:05:24,24.0,0.4,23.6,0.4,2.4,112
2011-10-08 22:10:24,24.1,-0.9,25.0,0.2,2.4,112
2011-10-08 22:15:24,24.2,1.4,22.8,0.4,2.4,111
2011-10-08 22:20:24,24.2,0.4,23.8,0.3,2.4,111
2011-10-08 22:25:24,24.1,-0.8,24.9,0.4,2.4,112
2011-10-08 22:30:24,24.0,-0.9,24.9,0.4,2.4,111
2011-10-08 22:35:24,24.0,0.9,23.2,0.4,2.4,111
2011-10-08 22:40:24,23.3,4.1,19.2,0.4,2.4,112
2011-10-08 22:45:24,20.3,4.1,16.1,0.3,2.3,111
2011-10-08 22:50:24,19.8,4.5,15.3,0.3,2.4,112
2011-10-08 22:55:24,19.5,3.8,15.8,0.3,2.5,112
2011-10-08 23:00:24,19.1,4.9,14.2,0.3,2.7,111
2011-10-08 23:05:24,19.4,5.8,13.6,0.2,2.7,112
2011-10-08 23:10:24,19.4,5.5,13.9,0.3,2.7,111
2011-10-08 23:15:24,19.4,5.8,13.5,0.3,2.7,112
2011-10-08 23:20:24,19.4,7.4,11.9,0.2,2.7,111
2011-10-08 23:25:24,19.4,6.8,12.6,0.3,2.7,112
2011-10-08 23:30:24,19.5,7.9,11.6,0.3,2.7,111
2011-10-08 23:35:24,19.5,8.5,11.0,0.2,2.7,112
2011-10-08 23:40:24,19.5,8.0,11.5,0.2,5.2,112
2011-10-08 23:45:24,19.5,4.6,14.9,0.3,12.9,111
2011-10-08 23:50:24,19.2,6.3,12.9,0.3,3.0,112
2011-10-08 23:55:24,19.0,7.6,11.4,0.3,2.6,111
